TimeMDT,TemperatureF,Dew PointF,Humidity,Sea Level PressureIn,VisibilityMPH,Wind Direction,Wind SpeedMPH,Gust SpeedMPH,PrecipitationIn,Events,Conditions,WindDirDegrees,DateUTC
12:15 AM,69.1,26.6,20,30.03,10.0,WNW,4.6,-,N/A,,Clear,290,2013-10-02 06:15:00
12:35 AM,66.0,27.3,23,30.03,10.0,Calm,Calm,-,N/A,,Clear,0,2013-10-02 06:35:00
12:55 AM,59.4,27.9,30,30.03,10.0,WSW,4.6,-,N/A,,Clear,250,2013-10-02 06:55:00
1:15 AM,59.7,27.5,29,30.03,10.0,WSW,8.1,-,N/A,,Clear,250,2013-10-02 07:15:00
1:35 AM,62.4,27.3,26,30.03,10.0,West,10.4,-,N/A,,Clear,260,2013-10-02 07:35:00
1:55 AM,60.6,27.5,28,30.03,10.0,West,5.8,-,N/A,,Clear,270,2013-10-02 07:55:00
2:15 AM,59.2,28.0,31,30.03,10.0,SW,9.2,-,N/A,,Clear,230,2013-10-02 08:15:00
2:35 AM,59.4,28.2,31,30.03,10.0,West,4.6,-,N/A,,Clear,260,2013-10-02 08:35:00
2:55 AM,57.0,28.4,34,30.03,10.0,WSW,5.8,-,N/A,,Clear,250,2013-10-02 08:55:00
3:15 AM,54.7,28.4,36,30.04,10.0,West,3.5,-,N/A,,Clear,270,2013-10-02 09:15:00
3:35 AM,54.7,28.4,36,30.04,10.0,WSW,9.2,-,N/A,,Clear,250,2013-10-02 09:35:00
3:55 AM,55.0,27.9,35,30.03,10.0,WSW,10.4,-,N/A,,Clear,250,2013-10-02 09:55:00
4:15 AM,56.3,27.5,33,30.03,10.0,West,10.4,-,N/A,,Clear,270,2013-10-02 10:15:00
4:35 AM,56.1,27.1,33,30.04,10.0,West,9.2,-,N/A,,Clear,270,2013-10-02 10:35:00
4:55 AM,55.2,27.3,34,30.04,10.0,WNW,10.4,-,N/A,,Clear,290,2013-10-02 10:55:00
5:15 AM,59.2,27.9,30,30.04,10.0,West,11.5,-,N/A,,Clear,280,2013-10-02 11:15:00
5:35 AM,57.7,28.0,32,30.05,10.0,WNW,8.1,-,N/A,,Clear,290,2013-10-02 11:35:00
5:55 AM,62.8,27.1,26,30.05,10.0,West,13.8,19.6,N/A,,Clear,280,2013-10-02 11:55:00
6:15 AM,61.3,27.3,27,30.05,10.0,West,10.4,-,N/A,,Clear,280,2013-10-02 12:15:00
6:35 AM,58.1,27.9,32,30.05,10.0,NW,6.9,-,N/A,,Clear,310,2013-10-02 12:35:00
6:55 AM,56.5,28.0,34,30.05,10.0,NNW,8.1,-,N/A,,Clear,340,2013-10-02 12:55:00
7:15 AM,56.8,28.4,34,30.05,10.0,NNW,9.2,-,N/A,,Clear,340,2013-10-02 13:15:00
7:35 AM,57.9,29.3,34,30.06,10.0,Calm,Calm,-,N/A,,Clear,0,2013-10-02 13:35:00
7:55 AM,58.6,30.7,35,30.06,10.0,Calm,Calm,-,N/A,,Clear,0,2013-10-02 13:55:00
8:15 AM,61.3,32.0,33,30.07,10.0,Calm,Calm,-,N/A,,Clear,0,2013-10-02 14:15:00
8:35 AM,63.5,32.9,32,30.07,10.0,Calm,Calm,-,N/A,,Clear,0,2013-10-02 14:35:00
8:55 AM,66.0,32.0,28,30.08,10.0,SSW,4.6,-,N/A,,Clear,210,2013-10-02 14:55:00
9:15 AM,66.7,32.9,28,30.09,10.0,South,5.8,-,N/A,,Clear,190,2013-10-02 15:15:00
9:35 AM,68.7,32.4,26,30.10,10.0,WSW,4.6,-,N/A,,Clear,240,2013-10-02 15:35:00
9:55 AM,70.9,32.5,24,30.10,10.0,West,5.8,-,N/A,,Clear,270,2013-10-02 15:55:00
10:15 AM,72.1,33.3,24,30.11,10.0,West,4.6,-,N/A,,Clear,270,2013-10-02 16:15:00
10:35 AM,73.0,33.4,23,30.11,10.0,West,3.5,-,N/A,,Clear,270,2013-10-02 16:35:00
10:55 AM,75.0,32.2,21,30.11,10.0,Calm,Calm,-,N/A,,Clear,0,2013-10-02 16:55:00
11:15 AM,76.8,33.3,20,30.10,10.0,Calm,Calm,-,N/A,,Clear,0,2013-10-02 17:15:00
11:35 AM,76.8,32.9,20,30.10,10.0,Calm,Calm,-,N/A,,Clear,0,2013-10-02 17:35:00
11:55 AM,78.1,31.5,18,30.09,10.0,SW,3.5,-,N/A,,Clear,220,2013-10-02 17:55:00
12:15 PM,79.5,31.3,17,30.08,10.0,SSW,4.6,-,N/A,,Clear,210,2013-10-02 18:15:00
12:35 PM,81.7,30.7,16,30.07,10.0,SW,10.4,-,N/A,,Clear,230,2013-10-02 18:35:00
12:55 PM,81.7,30.4,16,30.07,10.0,West,11.5,16.1,N/A,,Clear,270,2013-10-02 18:55:00
1:15 PM,81.5,30.9,16,30.06,10.0,West,5.8,-,N/A,,Clear,260,2013-10-02 19:15:00
1:35 PM,83.3,28.6,14,30.04,10.0,WSW,12.7,17.3,N/A,,Clear,250,2013-10-02 19:35:00
1:55 PM,83.5,30.7,15,30.03,10.0,West,9.2,19.6,N/A,,Clear,260,2013-10-02 19:55:00
2:15 PM,84.4,30.6,14,30.02,10.0,WSW,17.3,24.2,N/A,,Clear,240,2013-10-02 20:15:00
2:35 PM,84.7,30.9,14,30.01,10.0,SW,12.7,19.6,N/A,,Clear,220,2013-10-02 20:35:00
2:55 PM,84.6,31.5,15,30.01,10.0,SW,10.4,21.9,N/A,,Clear,230,2013-10-02 20:55:00
3:15 PM,84.6,31.8,15,30.00,10.0,WSW,13.8,18.4,N/A,,Clear,240,2013-10-02 21:15:00
3:35 PM,85.1,31.3,14,29.99,10.0,WSW,13.8,19.6,N/A,,Clear,240,2013-10-02 21:35:00
3:55 PM,84.7,31.1,14,29.99,10.0,West,10.4,18.4,N/A,,Clear,270,2013-10-02 21:55:00
4:15 PM,84.4,32.0,15,29.99,10.0,SW,12.7,21.9,N/A,,Clear,230,2013-10-02 22:15:00
4:35 PM,84.2,32.0,15,29.99,10.0,West,16.1,23.0,N/A,,Clear,270,2013-10-02 22:35:00
4:55 PM,83.5,31.8,16,29.98,10.0,WSW,12.7,20.7,N/A,,Clear,250,2013-10-02 22:55:00
5:15 PM,83.5,30.7,15,29.98,10.0,WSW,11.5,20.7,N/A,,Clear,240,2013-10-02 23:15:00
5:35 PM,82.6,30.2,15,29.98,10.0,West,11.5,17.3,N/A,,Clear,260,2013-10-02 23:35:00
5:55 PM,81.9,29.8,15,29.98,10.0,West,10.4,-,N/A,,Clear,260,2013-10-02 23:55:00
6:15 PM,80.8,30.2,16,29.99,10.0,West,10.4,-,N/A,,Clear,260,2013-10-03 00:15:00
6:35 PM,78.8,31.8,18,29.99,10.0,West,6.9,-,N/A,,Clear,260,2013-10-03 00:35:00
6:55 PM,76.5,31.5,19,29.99,10.0,West,8.1,-,N/A,,Clear,270,2013-10-03 00:55:00
7:15 PM,74.8,31.1,20,29.99,10.0,West,9.2,-,N/A,,Clear,280,2013-10-03 01:15:00
7:35 PM,72.3,31.1,22,29.99,10.0,WNW,8.1,-,N/A,,Clear,290,2013-10-03 01:35:00
7:55 PM,69.3,31.5,25,30.00,10.0,WNW,4.6,-,N/A,,Clear,290,2013-10-03 01:55:00
8:15 PM,70.2,31.1,24,30.00,10.0,WNW,4.6,-,N/A,,Clear,290,2013-10-03 02:15:00
8:35 PM,68.9,31.5,25,30.00,10.0,West,4.6,-,N/A,,Clear,280,2013-10-03 02:35:00
8:55 PM,67.3,31.6,27,30.00,10.0,West,4.6,-,N/A,,Clear,280,2013-10-03 02:55:00
9:15 PM,65.8,31.6,28,30.00,10.0,WNW,4.6,-,N/A,,Clear,290,2013-10-03 03:15:00
9:35 PM,64.4,31.3,29,30.00,10.0,NW,5.8,-,N/A,,Clear,310,2013-10-03 03:35:00
9:55 PM,65.8,31.3,28,30.00,10.0,WNW,6.9,-,N/A,,Clear,300,2013-10-03 03:55:00
10:15 PM,65.8,31.8,28,30.00,10.0,WNW,6.9,-,N/A,,Clear,300,2013-10-03 04:15:00
10:35 PM,64.8,31.8,29,30.01,10.0,WNW,6.9,-,N/A,,Clear,290,2013-10-03 04:35:00
10:55 PM,62.1,32.0,32,30.00,10.0,NW,5.8,-,N/A,,Clear,310,2013-10-03 04:55:00
11:15 PM,60.8,31.8,34,30.01,10.0,NW,8.1,-,N/A,,Clear,310,2013-10-03 05:15:00
11:35 PM,64.8,31.1,28,30.00,10.0,NW,9.2,-,N/A,,Clear,310,2013-10-03 05:35:00
11:55 PM,62.6,31.5,31,30.00,10.0,WNW,8.1,-,N/A,,Clear,290,2013-10-03 05:55:00